[[{"header":{"parameterUnit":"m.s-1","parameterCategory":1,"la1":30.2991,"la2":30.254,"lo1":-89.0895,"lo2":-89.0444,"dy":0.0017,"dx":0.0017,"nx":28,"ny":28,"refTime":"2025-06-07T03:00:00:Z","depth":0,"parameterNumber":2,"parameterNumberName":"U-component_of_WINDS"},"data":[0,0,0,0,0,0,0,0,0,0,0,0,0,0,0,0,0,0,0,0,0,0,0,0,0,0,0,0,0,0,0,0,0,0,0,0,0,0,0,0,0,0,0,0,0,0,0,0,0,0,0,0,0,0,0,0,0,0,3.6045,3.6046,0,3.6079,3.6079,3.6079,3.6039,3.6037,3.6035,3.6034,3.6071,3.6074,3.6076,0,0,0,0,0,0,0,0,0,0,0,0,0,3.595,3.5952,3.6045,3.6046,3.6046,3.6079,3.6079,3.608,3.6039,3.6037,3.6035,3.6033,3.6071,3.6073,3.6076,0,0,0,0,0,0,0,0,0,0,0,0,0,3.5988,3.5953,3.6045,3.603,3.6029,3.6078,3.6079,3.608,3.6039,3.6037,3.6035,3.6032,3.607,3.6073,3.6077,3.6144,0,0,3.6088,3.6089,0,0,0,0,0,0,0,0,3.5986,3.5992,3.6032,3.6031,3.603,3.6052,3.6059,3.6101,3.604,3.6035,3.6034,3.6031,3.6067,3.6071,3.6082,3.6146,3.6148,3.6088,3.609,3.6092,3.6093,0,0,0,0,0,0,0,3.5984,3.599,3.6059,3.6032,3.6031,3.6022,3.6025,3.6067,3.6064,3.6035,3.6033,3.6037,3.6066,3.6079,3.6083,3.6148,3.6088,3.6091,3.6093,3.6095,3.6271,3.6273,0,0,0,0,0,0,3.5982,3.5988,3.6058,3.606,3.6002,3.6026,3.6029,3.6047,3.6063,3.6063,3.6039,3.6035,3.6074,3.6078,3.6084,3.6164,3.6092,3.6095,3.6097,3.6268,3.6271,3.6274,0,0,0,0,0,0,3.5981,3.5989,3.6056,3.6023,3.6031,3.603,3.6051,3.6049,3.6061,3.6065,3.6065,3.6052,3.6072,3.6079,3.613,3.6165,3.6097,3.61,3.6265,3.6269,3.6273,3.6325,0,0,0,0,0,0,3.5978,3.5989,3.6013,3.6024,3.6033,3.61,3.6053,3.6051,3.6067,3.6063,3.6078,3.6078,3.6071,3.6124,3.6133,3.6168,3.6103,3.6262,3.6267,3.6271,3.632,3.633,3.6339,0,0,0,0,0,3.5975,3.6027,3.6015,3.6023,3.6064,3.6102,3.6108,3.6097,3.607,3.6096,3.6099,3.6078,3.616,3.613,3.6139,3.6176,3.626,3.6266,3.6271,3.6316,3.6328,3.6339,0,0,0,0,0,0,3.6021,3.6028,3.6014,3.6072,3.6087,3.6095,3.6127,3.611,3.6134,3.6129,3.6116,3.612,3.6174,3.618,3.6147,3.6243,3.6206,3.6213,3.6237,3.6248,3.6257,3.6254,3.6106,0,0,0,0,0,3.6038,3.6068,3.6073,3.6123,3.6131,3.6128,3.6145,3.6135,3.6151,3.6157,3.6164,3.618,3.621,3.623,3.6257,3.6322,3.6325,3.6352,3.6361,3.6369,3.6375,3.6411,3.6423,3.6293,3.6292,3.6292,0,0,3.6073,3.6081,3.61,3.6133,3.6143,3.6175,3.6134,3.6169,3.6193,3.6163,3.6211,3.6217,3.6235,3.6293,3.6319,3.63,3.6412,3.6376,3.6382,3.6385,3.6418,3.643,3.6441,3.6296,3.6296,3.6295,0,0,3.6153,3.6162,3.6205,3.6216,3.6233,3.623,3.6241,3.6253,3.6255,3.6303,3.6281,3.631,3.6361,3.6375,3.6389,3.6476,3.6458,3.6486,3.6534,3.6568,3.6578,3.6587,3.6618,3.663,3.6493,3.6493,3.6493,0,3.6195,3.6241,3.6229,3.6266,3.6282,3.6255,3.6299,3.6311,3.6337,3.6348,3.6327,3.6391,3.6401,3.6462,3.6484,3.6496,3.6508,3.6483,3.6578,3.6587,3.6595,3.6624,3.6636,3.6496,3.6496,3.6495,3.6495,0,3.6292,3.6325,3.6358,3.6381,3.6401,3.6441,3.6436,3.6458,3.6448,3.6448,3.6498,3.651,3.6539,3.6553,3.6544,3.6614,3.6601,3.658,3.6541,3.6611,3.6638,3.6649,3.6501,3.6499,3.6499,3.6498,0,0,3.64,3.6418,3.643,3.6441,3.6458,3.6483,3.6524,3.6552,3.657,3.659,3.6623,3.6668,3.6648,3.6663,3.6656,3.6686,3.6755,3.666,3.666,3.6677,3.6832,3.6848,3.6861,3.6743,3.6745,3.6747,3.683,0,3.648,3.6548,3.6539,3.6605,3.6635,3.6612,3.6647,3.6662,3.6664,3.6692,3.6695,3.6726,3.6697,3.6707,3.6736,3.674,3.6785,3.6734,3.6775,3.6776,3.6769,3.6875,3.6892,3.6969,3.6841,3.6843,3.6844,0,3.6581,3.6603,3.6672,3.6685,3.6697,3.6729,3.6754,3.6781,3.6798,3.6798,3.6816,3.6803,3.6845,3.6807,3.6865,3.683,3.6846,3.6851,3.6854,3.6856,3.6813,3.688,3.6994,3.7005,3.6861,3.686,3.6858,0,3.6652,3.67,3.6747,3.6757,3.6773,3.6796,3.6804,3.6819,3.6837,3.686,3.6872,3.69,3.6915,3.6938,3.6934,3.6907,3.6993,3.6954,3.6994,3.6994,3.7012,3.7011,3.713,3.7025,3.7025,3.7024,3.7024,0,3.6742,3.6784,3.6779,3.6808,3.6856,3.6846,3.6894,3.69,3.6914,3.6944,3.6926,3.6956,3.6949,3.6978,3.6976,3.7024,3.7031,3.7032,3.7031,3.7033,3.7033,3.7043,3.7037,3.7028,3.7027,3.7026,3.7026,0,3.6828,3.6826,3.6876,3.6888,3.6892,3.6927,3.6938,3.6966,3.6967,3.7006,3.7015,3.7017,3.7051,3.705,3.7088,3.7087,3.7146,3.7139,3.7139,3.7137,3.7177,3.7173,3.7305,3.7322,3.7207,3.7209,3.7209,0,3.6885,3.6917,3.6933,3.6951,3.6961,3.6992,3.701,3.7003,3.7022,3.7045,3.7071,3.7103,3.7128,3.7183,3.7189,3.7219,3.7212,3.7257,3.7216,3.7218,3.7212,3.7209,3.7212,3.7264,3.7265,3.7266,3.7267,0,3.6985,3.6982,3.7008,3.7035,3.7057,3.7078,3.7097,3.7114,3.7109,3.7132,3.7166,3.7186,3.7225,3.7257,3.7286,3.7296,3.7281,3.728,3.7291,3.7292,3.7291,3.7291,3.716,3.7277,3.7276,3.7275,3.7274,3.7274,3.7057,3.7085,3.71,3.7131,3.7144,3.7163,3.7189,3.7194,3.7222,3.7253,3.7248,3.7286,3.7304,3.7341,3.7354,3.7384,3.7368,3.7384,3.7388,3.7391,3.7395,3.7288,3.739,3.7389,3.7389,3.7389,3.7389,0,3.7155,3.7164,3.7192,3.7219,3.7244,3.7228,3.7248,3.727,3.7303,3.7321,3.7346,3.7386,3.7417,3.7426,3.7457,3.748,3.7474,3.7488,3.7486,3.7488,3.7408,3.7395,3.7492,3.7492,3.7492,3.7492,3.7492,3.7492,3.7209,3.7255,3.7255,3.7308,3.7317,3.7354,3.7367,3.7384,3.7398,3.7443,3.7469,3.7475,3.7489,3.7521,3.755,3.7552,3.7564,3.758,3.758,3.7504,3.7494,3.7484,3.7472,3.7583,3.7584,3.7657,3.7658,3.7658]},{"header":{"parameterUnit":"m.s-1","parameterCategory":1,"la1":30.2991,"la2":30.254,"lo1":-89.0895,"lo2":-89.0444,"dy":0.0017,"dx":0.0017,"nx":28,"ny":28,"refTime":"2025-06-07T03:00:00:Z","depth":0,"parameterNumber":3,"parameterNumberName":"V-component_of_WINDS"},"data":[0,0,0,0,0,0,0,0,0,0,0,0,0,0,0,0,0,0,0,0,0,0,0,0,0,0,0,0,0,0,0,0,0,0,0,0,0,0,0,0,0,0,0,0,0,0,0,0,0,0,0,0,0,0,0,0,0,0,2.426,2.4261,0,2.4364,2.4365,2.4366,2.4416,2.4416,2.4416,2.4416,2.4519,2.4522,2.4524,0,0,0,0,0,0,0,0,0,0,0,0,0,2.4102,2.4105,2.426,2.4261,2.4263,2.4363,2.4365,2.4366,2.4416,2.4416,2.4416,2.4416,2.4518,2.4521,2.4525,0,0,0,0,0,0,0,0,0,0,0,0,0,2.4185,2.4106,2.426,2.43,2.4305,2.4363,2.4365,2.4367,2.4416,2.4416,2.4416,2.4416,2.4517,2.4521,2.4525,2.455,0,0,2.4538,2.4539,0,0,0,0,0,0,0,0,2.418,2.419,2.4293,2.4297,2.4303,2.4377,2.4347,2.4428,2.4416,2.4374,2.4416,2.4416,2.4472,2.4479,2.4499,2.4555,2.456,2.4538,2.454,2.4542,2.4543,0,0,0,0,0,0,0,2.4174,2.4186,2.4301,2.4294,2.43,2.4311,2.4323,2.4362,2.4421,2.4378,2.4381,2.4393,2.4474,2.4495,2.4501,2.4561,2.4538,2.4541,2.4544,2.4546,2.4642,2.4643,0,0,0,0,0,0,2.4162,2.4181,2.4298,2.4304,2.424,2.4314,2.4327,2.4353,2.4421,2.4432,2.4393,2.4395,2.4488,2.4497,2.4505,2.4539,2.4542,2.4546,2.4548,2.4642,2.4642,2.4643,0,0,0,0,0,0,2.4159,2.4172,2.4294,2.4244,2.426,2.4317,2.4346,2.4355,2.4376,2.4433,2.4443,2.4403,2.4488,2.4499,2.4539,2.4543,2.4548,2.4552,2.4642,2.4642,2.4642,2.4607,0,0,0,0,0,0,2.4154,2.4171,2.4182,2.4244,2.4263,2.4327,2.4346,2.4357,2.4383,2.4387,2.4445,2.4455,2.4489,2.4532,2.4543,2.4549,2.4555,2.4642,2.4642,2.4642,2.4608,2.4606,2.4604,0,0,0,0,0,2.4148,2.4168,2.4183,2.4196,2.4278,2.4327,2.4337,2.4377,2.4383,2.4394,2.4431,2.4453,2.4541,2.4536,2.4548,2.4556,2.4642,2.4642,2.4642,2.4609,2.4606,2.4604,0,0,0,0,0,0,2.4105,2.4177,2.4194,2.4234,2.4274,2.4335,2.4351,2.4373,2.4411,2.4413,2.4459,2.4472,2.4507,2.4535,2.4528,2.4583,2.4593,2.4596,2.4564,2.4562,2.456,2.4553,2.4558,0,0,0,0,0,2.41,2.4134,2.4195,2.4224,2.4243,2.4293,2.4316,2.4343,2.4386,2.4403,2.4442,2.4482,2.4519,2.4542,2.4579,2.4612,2.4625,2.4623,2.4621,2.4619,2.4621,2.464,2.4639,2.4643,2.4643,2.4643,0,0,2.409,2.4133,2.4152,2.4216,2.4251,2.4284,2.4307,2.4342,2.4367,2.4408,2.4448,2.4478,2.4525,2.4561,2.4579,2.4586,2.4623,2.4619,2.4618,2.4621,2.464,2.464,2.4639,2.4644,2.4643,2.4643,0,0,2.4089,2.4126,2.4154,2.4188,2.4239,2.4272,2.4279,2.4337,2.4358,2.4399,2.443,2.4459,2.4522,2.4554,2.4578,2.4588,2.4609,2.4598,2.4588,2.4606,2.4606,2.4606,2.4608,2.4609,2.46,2.46,2.46,0,2.407,2.4123,2.4165,2.4199,2.4225,2.4264,2.4292,2.4322,2.4383,2.4399,2.4406,2.4484,2.4519,2.4563,2.4565,2.4584,2.4592,2.4592,2.4603,2.4603,2.4603,2.4607,2.4608,2.4598,2.4598,2.4598,2.4599,0,2.4097,2.4133,2.4149,2.4208,2.4236,2.4266,2.4312,2.4335,2.4359,2.439,2.443,2.4473,2.4519,2.4531,2.4554,2.4578,2.458,2.4594,2.4605,2.4601,2.4604,2.4606,2.4596,2.4596,2.4597,2.4597,0,0,2.4073,2.4153,2.4159,2.4185,2.4244,2.4272,2.4303,2.4349,2.4367,2.4407,2.4434,2.4485,2.4498,2.4525,2.4552,2.4568,2.4571,2.458,2.4581,2.4576,2.4599,2.4588,2.4589,2.4586,2.4586,2.4587,2.4595,0,2.4081,2.414,2.4178,2.4221,2.4254,2.4291,2.4317,2.4356,2.4385,2.4417,2.4449,2.4484,2.4499,2.4516,2.4533,2.4567,2.4577,2.4567,2.461,2.4611,2.4597,2.4591,2.458,2.4586,2.4597,2.4597,2.4597,0,2.4098,2.4137,2.4184,2.4238,2.4254,2.4277,2.4321,2.4351,2.4394,2.4415,2.4445,2.4472,2.4505,2.4513,2.4558,2.455,2.457,2.4589,2.459,2.4596,2.4604,2.4597,2.4589,2.459,2.46,2.46,2.4599,0,2.4075,2.414,2.4176,2.4198,2.4262,2.4277,2.4305,2.4348,2.4372,2.441,2.4426,2.4467,2.4489,2.4519,2.4556,2.4558,2.4597,2.4608,2.4614,2.4613,2.4621,2.462,2.4616,2.4633,2.4633,2.4633,2.4633,0,2.408,2.4107,2.4167,2.4189,2.422,2.4262,2.4291,2.4321,2.4359,2.4387,2.442,2.4445,2.4492,2.4522,2.4551,2.4583,2.4593,2.4609,2.4617,2.4607,2.4604,2.462,2.4621,2.4633,2.4633,2.4633,2.4633,0,2.4061,2.4102,2.4144,2.4201,2.4216,2.4236,2.4284,2.4306,2.4337,2.4371,2.4382,2.443,2.4467,2.4507,2.4557,2.4576,2.4607,2.4617,2.4593,2.4597,2.46,2.4599,2.4607,2.461,2.4624,2.4624,2.4624,0,2.4061,2.4083,2.4142,2.4164,2.419,2.4224,2.4249,2.4291,2.4315,2.4365,2.4381,2.4421,2.4455,2.4512,2.4551,2.4589,2.46,2.46,2.4606,2.4595,2.46,2.4598,2.46,2.4598,2.4598,2.4598,2.4597,0,2.4058,2.4077,2.4112,2.4154,2.4184,2.4219,2.4255,2.427,2.4318,2.4344,2.4382,2.4409,2.446,2.4498,2.4541,2.4567,2.459,2.4595,2.4598,2.4589,2.4573,2.4581,2.4588,2.4595,2.4595,2.4595,2.4595,2.4596,2.4049,2.4069,2.4114,2.4152,2.4183,2.4216,2.4239,2.4273,2.4307,2.4352,2.4374,2.4412,2.4453,2.4513,2.4539,2.4568,2.4575,2.458,2.4581,2.4582,2.4579,2.4568,2.4576,2.4576,2.4576,2.4576,2.4576,0,2.4047,2.4077,2.4112,2.4161,2.419,2.421,2.425,2.4273,2.4307,2.4343,2.4376,2.4419,2.4456,2.4497,2.4537,2.4552,2.4563,2.4561,2.456,2.4566,2.4571,2.4564,2.4551,2.4551,2.4551,2.4551,2.4551,2.4551,2.4049,2.4085,2.4109,2.416,2.419,2.4228,2.4249,2.4279,2.4309,2.4356,2.4387,2.4414,2.4452,2.4494,2.4528,2.4539,2.4552,2.4546,2.456,2.4564,2.4566,2.4568,2.4562,2.4549,2.4549,2.4553,2.4553,2.4553]}]]